{"data":{"norad_id":66931,"intl_designator":"2025-286G","name":"STARLINK-36130","alt_names":[],"object_type":"PAYLOAD","status":"ACTIVE","operator":null,"country":"US","launch_date":"2025-12-07","launch_site_code":"AFWTR","launch_vehicle":null,"mission":null,"orbit_class":"UNKNOWN","rcs_meters":null,"size_class":null,"mass_kg":null,"dimensions":null,"purposes":["comms"],"wikipedia_slug":null,"has_3d_model":false,"image_url":null,"decayed_at":null,"tle_current":{"epoch":"2026-05-24T23:37:39.919584Z","epoch_age_seconds":80363,"freshness":"FRESH","line1":"1 66931U 25286G   26144.98448981  .00019831  00000+0  59646-3 0  9990","line2":"2 66931  53.1594   3.6612 0000966  91.4388 268.6725 15.34401920 27101","mean_motion":15.3440192,"eccentricity":9.66e-5,"inclination_deg":53.1594,"raan_deg":3.6612,"arg_perigee_deg":91.4388,"mean_anomaly_deg":268.6725,"bstar":0.00059646,"rev_number":2710,"period_min":93.847640649459,"perigee_km":462.03670895249,"apogee_km":463.35835818438,"semimajor_km":6840.8345335684,"source":"CELESTRAK","updated_at":"2026-05-25T13:38:21.385924Z"}}}